SWR455 LSGG-LGIR

Flight info

Callsign SWR455
Flight time N/A
Altitude 33000
Route MEDAM DCT NITAM DCT MOGBO DCT KODOK DCT TOP DCT LURUT DCT IBENI DCT KOFER/N0449F350 DCT PINDO DCT PIKOS DCT KEA UL607 GIVIS T514 XAVIS
Aircraft A321/M-SDE3FGHIRWY/LB1

Departure

Time 2026-05-04 15:39
Airport Geneva International Airport (LSGG)

Arrival

Time N/A
Airport Heraklion International Nikos Kazantzakis Airport (LGIR)
Time Latitude Longitude Altitude Speed Heading
2026-05-04 15:01 46.23105 6.10662 1393 ft 0 kts 135°
2026-05-04 15:28 46.23109 6.10657 1393 ft 3 kts 135°
2026-05-04 15:28 46.23127 6.10629 1409 ft 4 kts 115°
2026-05-04 15:28 46.23110 6.10577 1404 ft 4 kts 45°
2026-05-04 15:29 46.23104 6.10567 1398 ft 0 kts 45°
2026-05-04 15:32 46.23205 6.10716 1396 ft 19 kts 45°
2026-05-04 15:33 46.23383 6.10885 1403 ft 13 kts 46°
2026-05-04 15:34 46.23560 6.11144 1398 ft 15 kts 45°
2026-05-04 15:34 46.23630 6.11130 1396 ft 10 kts 314°
2026-05-04 15:34 46.23777 6.11186 1379 ft 23 kts 46°
2026-05-04 15:35 46.24002 6.11515 1372 ft 24 kts 45°
2026-05-04 15:35 46.24119 6.11688 1367 ft 24 kts 45°
2026-05-04 15:35 46.24239 6.11865 1362 ft 25 kts 45°
2026-05-04 15:36 46.24490 6.12237 1372 ft 25 kts 45°
2026-05-04 15:36 46.24641 6.12454 1367 ft 37 kts 45°
2026-05-04 15:36 46.24795 6.12667 1362 ft 25 kts 27°
2026-05-04 15:37 46.24940 6.12730 1367 ft 19 kts 17°
2026-05-04 15:37 46.25003 6.12664 1371 ft 9 kts 258°
2026-05-04 15:37 46.24989 6.12633 1370 ft 0 kts 228°
2026-05-04 15:38 46.24973 6.12608 1371 ft 18 kts 226°
2026-05-04 15:38 46.24708 6.12223 1372 ft 87 kts 225°
2026-05-04 15:38 46.24149 6.11397 1375 ft 141 kts 225°
2026-05-04 15:39 46.23363 6.10244 1410 ft 180 kts 226°
2026-05-04 15:39 46.22493 6.09002 2097 ft 171 kts 225°
2026-05-04 15:39 46.20769 6.06662 3083 ft 183 kts 223°
2026-05-04 15:40 46.19650 6.05681 3275 ft 198 kts 193°
2026-05-04 15:40 46.18247 6.05770 3529 ft 210 kts 161°
2026-05-04 15:40 46.16859 6.06604 3755 ft 223 kts 155°
2026-05-04 15:40 46.15425 6.07686 3927 ft 242 kts 152°
2026-05-04 15:41 46.13894 6.08931 4142 ft 261 kts 151°
2026-05-04 15:41 46.12295 6.10242 4736 ft 265 kts 151°
2026-05-04 15:41 46.10691 6.11521 5493 ft 262 kts 153°
2026-05-04 15:41 46.09078 6.12708 6261 ft 260 kts 154°
2026-05-04 15:42 46.07452 6.13889 6814 ft 265 kts 154°
2026-05-04 15:42 46.05791 6.15093 7465 ft 267 kts 155°
2026-05-04 15:42 46.04124 6.16292 8140 ft 268 kts 156°
2026-05-04 15:42 46.02441 6.17472 8772 ft 270 kts 157°
2026-05-04 15:43 46.00739 6.18655 9398 ft 272 kts 158°
2026-05-04 15:43 45.99028 6.19853 9984 ft 276 kts 157°
2026-05-04 15:43 45.97300 6.21069 10311 ft 288 kts 157°
2026-05-04 15:43 45.95446 6.22387 10425 ft 307 kts 155°
2026-05-04 15:44 45.93598 6.24125 10565 ft 328 kts 147°
2026-05-04 15:44 45.91715 6.26121 10679 ft 344 kts 147°
2026-05-04 15:44 45.89753 6.28192 10953 ft 355 kts 147°
2026-05-04 15:44 45.87756 6.30304 11359 ft 359 kts 146°
2026-05-04 15:45 45.85739 6.32450 11774 ft 361 kts 146°
2026-05-04 15:45 45.83707 6.34614 12217 ft 365 kts 146°
2026-05-04 15:45 45.81696 6.36759 12724 ft 368 kts 146°
2026-05-04 15:45 45.79616 6.38977 13236 ft 370 kts 147°
2026-05-04 15:46 45.77592 6.41131 13725 ft 374 kts 147°
2026-05-04 15:46 45.75498 6.43355 14169 ft 376 kts 147°
2026-05-04 15:46 45.73385 6.45594 14590 ft 379 kts 147°
2026-05-04 15:46 45.71255 6.47846 15061 ft 381 kts 147°
2026-05-04 15:47 45.69119 6.50102 15468 ft 383 kts 147°
2026-05-04 15:47 45.66969 6.52365 15895 ft 385 kts 147°
2026-05-04 15:47 45.64805 6.54639 16298 ft 387 kts 147°
2026-05-04 15:47 45.62649 6.56904 16674 ft 389 kts 147°
2026-05-04 15:48 45.60451 6.59216 17064 ft 391 kts 147°
2026-05-04 15:48 45.58256 6.61523 17435 ft 393 kts 147°
2026-05-04 15:48 45.53830 6.66172 18110 ft 397 kts 147°
2026-05-04 15:49 45.52224 6.67859 18333 ft 398 kts 147°
2026-05-04 15:49 45.49986 6.70208 18615 ft 400 kts 147°
2026-05-04 15:49 45.47739 6.72565 18915 ft 402 kts 147°
2026-05-04 15:49 45.45476 6.74932 19225 ft 404 kts 148°
2026-05-04 15:50 45.43196 6.77276 19460 ft 405 kts 148°
2026-05-04 15:50 45.40894 6.79593 19716 ft 407 kts 148°
2026-05-04 15:50 45.38569 6.81908 20071 ft 408 kts 149°
2026-05-04 15:50 45.36229 6.84229 20422 ft 410 kts 149°
2026-05-04 15:51 45.33887 6.86554 20724 ft 412 kts 149°
2026-05-04 15:51 45.31532 6.88899 21061 ft 414 kts 148°
2026-05-04 15:51 45.29168 6.91258 21383 ft 416 kts 148°
2026-05-04 15:51 45.26836 6.93629 21675 ft 419 kts 145°
2026-05-04 15:52 45.24669 6.96431 21947 ft 424 kts 139°
2026-05-04 15:52 45.22549 6.99375 22250 ft 427 kts 139°
2026-05-04 15:52 45.20414 7.02323 22575 ft 429 kts 139°
2026-05-04 15:52 45.18264 7.05280 22897 ft 431 kts 139°
2026-05-04 15:53 45.16103 7.08245 23200 ft 433 kts 139°
2026-05-04 15:53 45.13931 7.11218 23442 ft 436 kts 139°
2026-05-04 15:53 45.11747 7.14210 23705 ft 438 kts 139°
2026-05-04 15:53 45.09743 7.17501 23884 ft 444 kts 129°
2026-05-04 15:54 45.07968 7.21107 24094 ft 446 kts 128°
2026-05-04 15:54 45.06189 7.24721 24333 ft 448 kts 128°
2026-05-04 15:54 45.04397 7.28334 24569 ft 450 kts 129°
2026-05-04 15:54 45.02615 7.31907 24818 ft 451 kts 129°
2026-05-04 15:55 45.00795 7.35546 25051 ft 453 kts 129°
2026-05-04 15:55 44.99119 7.39363 25296 ft 459 kts 121°
2026-05-04 15:55 44.97873 7.43538 25519 ft 466 kts 111°
2026-05-04 15:55 44.97087 7.48000 25723 ft 471 kts 105°
2026-05-04 15:56 44.96432 7.52506 25948 ft 473 kts 105°
2026-05-04 15:56 44.95762 7.57018 26154 ft 474 kts 105°
2026-05-04 15:56 44.95075 7.61565 26369 ft 476 kts 105°
2026-05-04 15:56 44.94544 7.65061 26493 ft 477 kts 105°
2026-05-04 15:57 44.93930 7.69269 26655 ft 478 kts 104°
2026-05-04 15:57 44.93404 7.73870 26840 ft 481 kts 101°
2026-05-04 15:57 44.92993 7.78582 27018 ft 484 kts 99°
2026-05-04 15:57 44.92643 7.83341 27182 ft 486 kts 99°
2026-05-04 15:58 44.92296 7.88092 27360 ft 487 kts 99°
2026-05-04 15:58 44.91875 7.92827 27517 ft 488 kts 101°
2026-05-04 15:58 44.91369 7.97567 27664 ft 488 kts 103°
2026-05-04 15:58 44.90808 8.02255 27773 ft 490 kts 103°
2026-05-04 15:59 44.90212 8.06997 27910 ft 492 kts 103°
2026-05-04 15:59 44.89607 8.11782 28045 ft 493 kts 103°
2026-05-04 15:59 44.89038 8.16383 28207 ft 494 kts 103°
2026-05-04 15:59 44.88471 8.21123 28383 ft 495 kts 103°
2026-05-04 16:00 44.87909 8.25922 28559 ft 495 kts 103°
2026-05-04 16:00 44.87350 8.30714 28723 ft 496 kts 103°
2026-05-04 16:00 44.86787 8.35528 28907 ft 496 kts 103°
2026-05-04 16:00 44.86223 8.40328 29061 ft 496 kts 102°
2026-05-04 16:01 44.85651 8.45136 29233 ft 496 kts 102°
2026-05-04 16:01 44.85081 8.49890 29409 ft 497 kts 102°
2026-05-04 16:01 44.84501 8.54705 29588 ft 497 kts 103°
2026-05-04 16:01 44.83923 8.59492 29758 ft 497 kts 103°
2026-05-04 16:02 44.83341 8.64296 29933 ft 497 kts 103°
2026-05-04 16:02 44.82754 8.69100 30106 ft 497 kts 103°
2026-05-04 16:02 44.81578 8.78693 30410 ft 497 kts 102°
2026-05-04 16:03 44.80991 8.83468 30626 ft 495 kts 102°
2026-05-04 16:03 44.80400 8.88260 30805 ft 494 kts 102°
2026-05-04 16:03 44.79817 8.92972 30993 ft 494 kts 102°
2026-05-04 16:03 44.79226 8.97735 31169 ft 493 kts 102°
2026-05-04 16:04 44.78633 9.02497 31329 ft 493 kts 102°
2026-05-04 16:04 44.77439 9.12020 31672 ft 493 kts 103°
2026-05-04 16:04 44.76847 9.16721 31829 ft 492 kts 102°
2026-05-04 16:05 44.76249 9.21449 32022 ft 491 kts 103°
2026-05-04 16:05 44.75646 9.26199 32183 ft 491 kts 102°
2026-05-04 16:05 44.74439 9.35653 32515 ft 490 kts 103°
2026-05-04 16:06 44.73838 9.40326 32699 ft 490 kts 103°
2026-05-04 16:06 44.72216 9.52892 33073 ft 488 kts 102°
2026-05-04 16:07 44.71397 9.59167 33086 ft 486 kts 102°
2026-05-04 16:08 44.68950 9.77831 33081 ft 486 kts 103°
2026-05-04 16:09 44.65850 10.01103 33079 ft 485 kts 102°
2026-05-04 16:10 44.63548 10.18162 33077 ft 485 kts 102°
2026-05-04 16:11 44.61012 10.36790 33105 ft 484 kts 102°
2026-05-04 16:12 44.57148 10.64551 33108 ft 483 kts 102°
2026-05-04 16:13 44.54556 10.82936 33116 ft 481 kts 102°
2026-05-04 16:14 44.51905 11.01350 33122 ft 481 kts 103°
2026-05-04 16:16 44.48235 11.24105 33129 ft 481 kts 104°
2026-05-04 16:17 44.44524 11.46873 33093 ft 478 kts 104°
2026-05-04 16:18 44.41542 11.64972 33105 ft 477 kts 104°
2026-05-04 16:19 44.37789 11.87505 33136 ft 475 kts 104°
2026-05-04 16:20 44.33999 12.09944 33104 ft 475 kts 104°
2026-05-04 16:22 44.30175 12.32391 33660 ft 471 kts 104°
2026-05-04 16:22 44.27878 12.45631 34089 ft 473 kts 104°
2026-05-04 16:23 44.25516 12.59153 34087 ft 477 kts 104°
2026-05-04 16:25 44.20785 12.86100 34088 ft 474 kts 105°
2026-05-04 16:26 44.15207 13.17227 34099 ft 472 kts 105°
2026-05-04 16:28 44.11211 13.39297 34104 ft 469 kts 105°
2026-05-04 16:29 44.05571 13.69876 34107 ft 465 kts 105°
2026-05-04 16:31 44.01398 13.91572 34103 ft 462 kts 113°
2026-05-04 16:32 43.92177 14.14866 34095 ft 459 kts 121°
2026-05-04 16:33 43.85873 14.30287 34070 ft 461 kts 121°
2026-05-04 16:34 43.81112 14.41841 34069 ft 463 kts 121°
2026-05-04 16:35 43.71500 14.65091 34083 ft 464 kts 121°
2026-05-04 16:36 43.66665 14.76678 34093 ft 464 kts 121°
2026-05-04 16:37 43.61834 14.88220 34094 ft 464 kts 121°
2026-05-04 16:38 43.55364 15.03661 34087 ft 465 kts 121°
2026-05-04 16:39 43.47226 15.22872 34096 ft 465 kts 121°
2026-05-04 16:40 43.40688 15.38267 34087 ft 466 kts 121°
2026-05-04 16:41 43.32465 15.57505 34086 ft 468 kts 121°
2026-05-04 16:43 43.24161 15.76789 34088 ft 470 kts 121°
2026-05-04 16:43 43.19152 15.88350 34095 ft 470 kts 121°
2026-05-04 16:45 43.09105 16.11415 34095 ft 472 kts 121°
2026-05-04 16:46 43.00689 16.30633 34099 ft 473 kts 121°